TimeEST,TemperatureF,Dew PointF,Humidity,Sea Level PressureIn,VisibilityMPH,Wind Direction,Wind SpeedMPH,Gust SpeedMPH,PrecipitationIn,Events,Conditions,WindDirDegrees,DateUTC
12:53 AM,68.0,68.0,100,30.07,10.0,Calm,Calm,-,N/A,,Clear,0,2012-12-13 05:53:00
1:53 AM,68.0,66.9,96,30.06,8.0,WNW,3.5,-,N/A,,Partly Cloudy,300,2012-12-13 06:53:00
2:53 AM,70.0,70.0,100,30.06,9.0,Calm,Calm,-,N/A,,Overcast,0,2012-12-13 07:53:00
3:53 AM,71.1,70.0,96,30.04,10.0,Calm,Calm,-,N/A,,Clear,0,2012-12-13 08:53:00
4:13 AM,68.0,66.2,94,30.05,1.5,Calm,Calm,-,N/A,,Clear,0,2012-12-13 09:13:00
4:17 AM,68.0,66.2,94,30.05,0.8,Calm,Calm,-,N/A,,Mist,0,2012-12-13 09:17:00
4:31 AM,69.8,69.8,100,30.04,1.5,Calm,Calm,-,N/A,,Scattered Clouds,0,2012-12-13 09:31:00
4:38 AM,69.8,69.8,100,30.04,10.0,Calm,Calm,-,N/A,,Scattered Clouds,0,2012-12-13 09:38:00
4:53 AM,69.1,68.0,96,30.04,8.0,Calm,Calm,-,N/A,,Clear,0,2012-12-13 09:53:00
5:53 AM,70.0,70.0,100,30.06,10.0,Calm,Calm,-,N/A,,Clear,0,2012-12-13 10:53:00
6:14 AM,66.2,66.2,100,30.06,1.8,Calm,Calm,-,N/A,,Clear,0,2012-12-13 11:14:00
6:30 AM,69.8,69.8,100,30.05,7.0,South,4.6,-,0.01,,Clear,170,2012-12-13 11:30:00
6:53 AM,68.0,66.9,96,30.07,6.0,West,3.5,-,0.01,,Clear,270,2012-12-13 11:53:00
7:36 AM,66.2,66.2,100,30.07,1.0,Calm,Calm,-,N/A,,Mist,0,2012-12-13 12:36:00
7:53 AM,70.0,68.0,93,30.09,4.0,Calm,Calm,-,N/A,,Clear,0,2012-12-13 12:53:00
8:53 AM,75.9,73.0,91,30.10,10.0,WSW,3.5,-,N/A,,Clear,250,2012-12-13 13:53:00
9:49 AM,78.8,71.6,78,30.10,10.0,West,8.1,-,N/A,,Mostly Cloudy,270,2012-12-13 14:49:00
9:53 AM,80.1,72.0,76,30.10,10.0,West,8.1,-,N/A,,Mostly Cloudy,270,2012-12-13 14:53:00
10:00 AM,80.6,71.6,74,30.10,10.0,West,6.9,-,N/A,,Mostly Cloudy,260,2012-12-13 15:00:00
10:27 AM,78.8,71.6,78,30.11,10.0,WNW,5.8,-,N/A,,Mostly Cloudy,300,2012-12-13 15:27:00
10:53 AM,81.0,71.1,72,30.10,10.0,West,6.9,-,N/A,,Partly Cloudy,260,2012-12-13 15:53:00
11:53 AM,84.9,71.1,63,30.09,10.0,WNW,11.5,-,0.00,,Mostly Cloudy,300,2012-12-13 16:53:00
12:12 PM,78.8,71.6,78,30.08,10.0,NNW,16.1,-,0.00,,Mostly Cloudy,330,2012-12-13 17:12:00
12:53 PM,77.0,70.0,79,30.07,10.0,North,15.0,-,0.00,,Mostly Cloudy,350,2012-12-13 17:53:00
1:28 PM,78.8,69.8,74,30.06,10.0,North,13.8,-,N/A,,Mostly Cloudy,350,2012-12-13 18:28:00
1:53 PM,75.9,69.1,79,30.06,10.0,North,15.0,23.0,N/A,,Overcast,350,2012-12-13 18:53:00
2:53 PM,73.9,68.0,82,30.06,10.0,North,15.0,-,N/A,,Overcast,360,2012-12-13 19:53:00
3:53 PM,73.0,66.9,81,30.06,10.0,North,13.8,-,N/A,,Overcast,360,2012-12-13 20:53:00
6:45 PM,71.6,64.4,78,30.08,10.0,NNE,11.5,-,N/A,,Overcast,30,2012-12-13 23:45:00
6:53 PM,71.6,64.4,78,30.08,10.0,North,11.5,-,N/A,,Overcast,10,2012-12-13 23:53:00
7:53 PM,71.6,64.4,78,30.09,10.0,NNE,11.5,-,N/A,,Partly Cloudy,20,2012-12-14 00:53:00
8:53 PM,70.0,64.0,81,30.10,10.0,North,9.2,-,N/A,,Overcast,360,2012-12-14 01:53:00
9:53 PM,69.1,63.0,81,30.11,10.0,North,10.4,-,N/A,,Overcast,360,2012-12-14 02:53:00
10:53 PM,66.9,63.0,87,30.11,10.0,North,12.7,-,N/A,,Scattered Clouds,350,2012-12-14 03:53:00
11:53 PM,66.0,62.1,87,30.09,10.0,North,11.5,20.7,N/A,,Mostly Cloudy,10,2012-12-14 04:53:00